This demonstration page uses our WeatherBlox Daily Observations layout. Learn more.

Left ArrowRight Arrow

Hourly Observations for December 16, 2016

Temp ( °F °C ) Dew Point ( °F °C ) Humidity (%) Winds ( mph kmh ) Pressure ( in mb ) Visibility ( mi km ) Precip ( " mm )
12:19 am 00:19 Clear 10 -12 3 -16 72 72 N N/A 30.48 1032 10 16 N/A
12:40 am 00:40 Mostly Cloudy 10 -12 3 -16 72 72 N N/A 30.48 1032 10 16 N/A
12:59 am 00:59 Cloudy 10 -12 3 -16 72 72 N N/A 30.48 1032 10 16 N/A
1:19 am 01:19 Cloudy 10 -12 3 -16 72 72 SE 3 6 30.48 1032 10 16 N/A
1:40 am 01:40 Cloudy 10 -12 3 -16 72 72 N N/A 30.45 1031 10 16 N/A
2:00 am 02:00 Mostly Cloudy 10 -12 3 -16 72 72 SSE 3 6 30.45 1031 10 16 N/A
2:19 am 02:19 Cloudy 10 -12 3 -16 72 72 N N/A 30.45 1031 10 16 N/A
2:40 am 02:40 Cloudy 12 -11 3 -16 67 67 SE 5 7 30.45 1031 10 16 N/A
2:59 am 02:59 Mostly Cloudy 12 -11 3 -16 67 67 SE 3 6 30.45 1031 10 16 N/A
3:19 am 03:19 Cloudy 12 -11 3 -16 67 67 ESE 5 7 30.45 1031 10 16 N/A
3:40 am 03:40 Cloudy 12 -11 3 -16 67 67 N N/A 30.45 1031 10 16 N/A
3:59 am 03:59 Cloudy 12 -11 3 -16 67 67 N N/A 30.48 1032 10 16 N/A
4:19 am 04:19 Cloudy 12 -11 3 -16 67 67 S 3 6 30.45 1031 10 16 N/A
4:40 am 04:40 Cloudy 12 -11 3 -16 67 67 SSE 5 7 30.45 1031 10 16 N/A
4:59 am 04:59 Cloudy 12 -11 3 -16 67 67 SE 7 11 30.42 1030 10 16 N/A
5:19 am 05:19 Cloudy 12 -11 3 -16 67 67 SSE 6 9 30.42 1030 10 16 N/A
5:40 am 05:40 Cloudy 12 -11 3 -16 67 67 SSE 5 7 30.42 1030 10 16 N/A
5:59 am 05:59 Cloudy 12 -11 3 -16 67 67 SSE 5 7 30.42 1030 10 16 N/A
6:19 am 06:19 Cloudy 12 -11 3 -16 67 67 SSE 5 7 30.42 1030 10 16 N/A
6:40 am 06:40 Cloudy 12 -11 3 -16 67 67 SE 7 11 30.42 1030 10 16 N/A
6:59 am 06:59 Cloudy 14 -10 3 -16 62 62 SE 6 9 30.39 1029 10 16 N/A
7:19 am 07:19 Cloudy 14 -10 3 -16 62 62 SE 8 13 30.36 1028 10 16 N/A
7:40 am 07:40 Cloudy 14 -10 3 -16 62 62 SE 8 13 30.36 1028 10 16 N/A
7:59 am 07:59 Cloudy 14 -10 3 -16 62 62 SE 9 15 30.36 1028 10 16 N/A
8:20 am 08:20 Cloudy 14 -10 3 -16 62 62 SE 10 17 30.33 1027 10 16 N/A
8:39 am 08:39 Cloudy 14 -10 3 -16 62 62 SE 9 15 30.33 1027 10 16 N/A
9:00 am 09:00 Cloudy 14 -10 3 -16 62 62 SSE 10 17 30.33 1027 10 16 N/A
9:20 am 09:20 Cloudy 14 -10 3 -16 62 62 SE 10 17 30.33 1027 10 16 N/A
9:39 am 09:39 Cloudy 14 -10 3 -16 62 62 SSE 8 13 30.33 1027 10 16 N/A
10:00 am 10:00 Cloudy 14 -10 3 -16 62 62 SE 10 17 30.33 1027 10 16 N/A
10:19 am 10:19 Cloudy 16 -9 3 -16 57 57 SE 10 17 30.30 1026 10 16 N/A
10:39 am 10:39 Cloudy 16 -9 5 -15 62 62 SE 8 13 30.33 1027 10 16 N/A
11:00 am 11:00 Cloudy 16 -9 5 -15 62 62 SSE 9 15 30.33 1027 10 16 N/A
11:20 am 11:20 Cloudy 16 -9 5 -15 62 62 SE 12 19 30.30 1026 10 16 N/A
11:39 am 11:39 Cloudy 16 -9 5 -15 62 62 SE 10 17 30.27 1025 10 16 N/A
12:00 pm 12:00 Cloudy 18 -8 7 -14 62 62 SE 12 19 30.27 1025 10 16 N/A
12:20 pm 12:20 Cloudy 18 -8 7 -14 62 62 SSE 13 20 30.27 1025 10 16 N/A
12:39 pm 12:39 Partly Cloudy 18 -8 5 -15 58 58 SSE 10 17 30.27 1025 10 16 N/A
1:00 pm 13:00 Partly Cloudy 19 -7 5 -15 53 53 SE 8 13 30.24 1024 10 16 N/A
1:20 pm 13:20 Mostly Cloudy 19 -7 7 -14 58 58 SSE 8 13 30.21 1023 10 16 N/A
1:39 pm 13:39 Cloudy 19 -7 5 -15 53 53 SE 13 20 30.21 1023 10 16 N/A
2:00 pm 14:00 Mostly Cloudy 19 -7 7 -14 58 58 SE 12 19 30.18 1022 10 16 N/A
2:19 pm 14:19 Mostly Cloudy 19 -7 7 -14 58 58 SE 10 17 30.18 1022 10 16 N/A
2:39 pm 14:39 Cloudy 19 -7 7 -14 58 58 SE 13 20 30.15 1021 10 16 N/A
3:00 pm 15:00 Cloudy 21 -6 7 -14 54 54 SE 13 20 30.15 1021 10 16 N/A
3:19 pm 15:19 Cloudy 21 -6 9 -13 58 58 SE 9 15 30.12 1020 10 16 N/A
3:39 pm 15:39 Cloudy 21 -6 9 -13 58 58 SE 12 19 30.12 1020 10 16 N/A
4:00 pm 16:00 Cloudy 21 -6 9 -13 58 58 SE 9 15 30.12 1020 10 16 N/A
4:19 pm 16:19 Cloudy 21 -6 9 -13 58 58 SSE 13 20 30.12 1020 10 16 N/A
4:39 pm 16:39 Cloudy 21 -6 9 -13 58 58 SSE 9 15 30.09 1019 10 16 N/A
5:00 pm 17:00 Cloudy 21 -6 9 -13 58 58 SE 12 19 30.09 1019 10 16 N/A
5:19 pm 17:19 Cloudy 21 -6 10 -12 63 63 SE 9 15 30.06 1018 10 16 N/A
5:39 pm 17:39 Cloudy 23 -5 10 -12 58 58 SE 9 15 30.03 1017 10 16 N/A
6:00 pm 18:00 Cloudy 23 -5 10 -12 58 58 SE 9 15 30.00 1016 10 16 N/A
6:19 pm 18:19 Cloudy 23 -5 10 -12 58 58 SE 10 17 30.00 1016 10 16 N/A
6:39 pm 18:39 Cloudy 23 -5 12 -11 63 63 SE 12 19 29.97 1015 10 16 N/A
7:00 pm 19:00 Cloudy 23 -5 12 -11 63 63 SE 13 20 29.97 1015 10 16 N/A
7:19 pm 19:19 Cloudy 23 -5 12 -11 63 63 SE 12 19 29.94 1014 10 16 N/A
7:39 pm 19:39 Cloudy 25 -4 12 -11 59 59 SSE 14 22 29.94 1014 10 16 N/A
8:00 pm 20:00 Cloudy 25 -4 12 -11 59 59 SSE 14 22 29.94 1014 10 16 N/A
8:19 pm 20:19 Cloudy 25 -4 12 -11 59 59 SSE 14 22 29.91 1013 10 16 N/A
8:39 pm 20:39 Cloudy 25 -4 14 -10 63 63 SSE 10 17 29.88 1012 10 16 N/A
9:00 pm 21:00 Cloudy 27 -3 14 -10 59 59 SSE 12 19 29.88 1012 10 16 N/A
9:19 pm 21:19 Cloudy 27 -3 14 -10 59 59 SSE 13 20 29.85 1011 10 16 N/A
9:39 pm 21:39 Cloudy 27 -3 16 -9 64 64 SSE 10 17 29.83 1010 10 16 N/A
10:00 pm 22:00 Cloudy 27 -3 16 -9 64 64 SE 15 24 29.80 1009 10 16 N/A
10:19 pm 22:19 Cloudy 28 -2 16 -9 59 59 SSE 10 17 29.80 1009 10 16 N/A
10:39 pm 22:39 Cloudy 28 -2 16 -9 59 59 SE 9 15 29.77 1008 10 16 N/A
11:00 pm 23:00 Cloudy 28 -2 19 -7 69 69 SSE 7 11 29.80 1009 3 5 N/A
11:19 pm 23:19 Cloudy 28 -2 23 -5 80 80 S 6 9 29.80 1009 4 6 N/A
11:39 pm 23:39 Cloudy 28 -2 25 -4 86 86 S 5 7 29.80 1009 5 8 N/A

Powered by AerisWeather